Erie, CO

4:46 AM MST on November 22, 2019 (GMT -0700)
Erie Municipal Airport

Weather History for KEIK - October, 2019

Change the Weather History Date:

Saturday, October 12, 2019

  Actual Average (KBJC) Record (KBJC)
Temperature  
Mean Temperature 44 °F -  
Max Temperature 66 °F 65 °F 85 °F (1991)
Min Temperature 23 °F 41 °F 29 °F (1990)
Degree Days  
Heating Degree Days 20    
Moisture  
Dew Point 23 °F    
Average Humidity 61    
Maximum Humidity 91    
Minimum Humidity 13    
Precipitation  
Precipitation 0.00 in - - ()
Sea Level Pressure  
Sea Level Pressure 30.06 in    
Wind  
Wind Speed 1 mph (NNE)    
Max Wind Speed 7 mph    
Max Gust Speed -    
Visibility 10 miles    
Events      
Averages and records for this station are not official NWS values.
T = Trace of Precipitation, MM = Missing Value Source: NWS Daily Summary

Daily Weather History Graph

Daily Weather History Graph

Search for Another Location

Airport or City:

Astronomy

Oct. 12, 2019 Rise Set
Actual Time 7:07 AM MDT 6:25 PM MDT
Civil Twilight 6:40 AM MDT 6:52 PM MDT
Nautical Twilight 6:08 AM MDT 7:23 PM MDT
Astronomical Twilight 5:37 AM MDT 7:55 PM MDT
Moon 6:22 PM MDT (10/12) 5:47 AM MDT (10/12)
Length of Visible Light 12h 12m
Length of Day
11h 17m
Waxing Gibbous, 99% of the Moon is Illuminated
Oct 12
Waxing Gibbous
Oct 13
Full
Oct 21
Last Quarter
Oct 27
New
Nov 4
First Quarter

Hourly Weather History & Observations

Time (MDT) Temp. Windchill Dew Point Humidity Pressure Visibility Wind Dir Wind Speed Gust Speed Precip Events Conditions
12:12 AM 34.9 °F - 23.0 °F 62% 30.14 in 10.0 mi Calm Calm - N/A   Clear
12:30 AM 32.5 °F - 23.7 °F 70% 30.13 in 10.0 mi Calm Calm - N/A   Clear
12:53 AM 30.2 °F - 23.9 °F 77% 30.13 in 10.0 mi Calm Calm - N/A   Clear
1:12 AM 30.4 °F - 23.9 °F 77% 30.13 in 10.0 mi Calm Calm - N/A   Clear
1:30 AM 28.9 °F 25.2 °F 23.7 °F 81% 30.13 in 10.0 mi West 3.5 mph - N/A   Clear
1:54 AM 27.5 °F - 23.5 °F 85% 30.12 in 10.0 mi Calm Calm - N/A   Clear
2:13 AM 28.2 °F - 24.1 °F 84% 30.12 in 10.0 mi Calm Calm - N/A   Clear
2:31 AM 27.7 °F - 23.7 °F 85% 30.12 in 10.0 mi Calm Calm - N/A   Clear
2:49 AM 26.6 °F - 23.4 °F 88% 30.12 in 10.0 mi Calm Calm - N/A   Clear
3:13 AM 27.0 °F - 24.1 °F 89% 30.11 in 10.0 mi Calm Calm - N/A   Clear
3:31 AM 25.9 °F 21.7 °F 22.8 °F 88% 30.11 in 10.0 mi South 3.5 mph - N/A   Clear
3:49 AM 26.6 °F - 23.2 °F 87% 30.11 in 10.0 mi Calm Calm - N/A   Clear
4:12 AM 26.6 °F 22.6 °F 22.6 °F 85% 30.11 in 10.0 mi SSW 3.5 mph - N/A   Clear
4:30 AM 26.6 °F - 22.6 °F 85% 30.10 in 10.0 mi Calm Calm - N/A   Clear
4:54 AM 25.2 °F - 22.1 °F 88% 30.10 in 10.0 mi Calm Calm - N/A   Clear
5:12 AM 25.5 °F - 22.3 °F 88% 30.10 in 10.0 mi Calm Calm - N/A   Clear
5:30 AM 23.7 °F - 21.4 °F 91% 30.10 in 10.0 mi Calm Calm - N/A   Clear
5:54 AM 24.8 °F - 21.6 °F 87% 30.11 in 10.0 mi Calm Calm - N/A   Clear
6:12 AM 24.3 °F - 21.7 °F 90% 30.10 in 10.0 mi Calm Calm - N/A   Clear
6:30 AM 25.3 °F - 22.1 °F 87% 30.10 in 10.0 mi Calm Calm - N/A   Clear
6:48 AM 24.8 °F 20.5 °F 21.9 °F 89% 30.10 in 10.0 mi SSW 3.5 mph - N/A   Clear
7:12 AM 25.0 °F - 21.6 °F 87% 30.09 in 10.0 mi Calm Calm - N/A   Clear
7:30 AM 25.3 °F - 21.2 °F 84% 30.09 in 10.0 mi Calm Calm - N/A   Clear
7:48 AM 25.5 °F - 22.8 °F 89% 30.10 in 10.0 mi Calm Calm - N/A   Clear
8:12 AM 29.1 °F - 25.2 °F 85% 30.10 in 10.0 mi Calm Calm - N/A   Clear
8:30 AM 31.6 °F 28.3 °F 26.1 °F 80% 30.10 in 10.0 mi WSW 3.5 mph - N/A   Clear
8:53 AM 34.9 °F - 27.0 °F 73% 30.10 in 10.0 mi Calm Calm - N/A   Clear
9:12 AM 37.2 °F - 26.6 °F 65% 30.10 in 10.0 mi Calm Calm - N/A   Clear
9:30 AM 39.4 °F 34.5 °F 27.1 °F 62% 30.11 in 10.0 mi North 6.9 mph - N/A   Clear
9:48 AM 40.6 °F 37.5 °F 25.0 °F 54% 30.10 in 10.0 mi North 4.6 mph - N/A   Clear
10:12 AM 42.8 °F 40.1 °F 22.8 °F 45% 30.10 in 10.0 mi North 4.6 mph - N/A   Clear
10:30 AM 43.2 °F 41.5 °F 23.4 °F 46% 30.09 in 10.0 mi ENE 3.5 mph - N/A   Clear
10:48 AM 44.2 °F - 23.2 °F 43% 30.09 in 10.0 mi Calm Calm - N/A   Clear
11:12 AM 46.4 °F 43.5 °F 22.1 °F 38% 30.08 in 10.0 mi ENE 5.8 mph - N/A   Clear
11:30 AM 48.4 °F - 22.1 °F 36% 30.08 in 10.0 mi Calm Calm - N/A   Clear
11:48 AM 50.4 °F - 22.3 °F 33% 30.07 in 10.0 mi Calm Calm - N/A   Clear
12:12 PM 52.5 °F - 22.6 °F 31% 30.06 in 10.0 mi Calm Calm - N/A   Clear
12:30 PM 54.1 °F - 22.8 °F 30% 30.05 in 10.0 mi NNE 3.5 mph - N/A   Clear
12:54 PM 57.4 °F - 20.5 °F 24% 30.04 in 10.0 mi East 3.5 mph - N/A   Clear
1:12 PM 58.8 °F - 17.6 °F 20% 30.02 in 10.0 mi ESE 5.8 mph - N/A   Clear
1:30 PM 60.4 °F - 16.5 °F 18% 30.01 in 10.0 mi Calm Calm - N/A   Clear
1:54 PM 61.7 °F - 14.9 °F 16% 30.00 in 10.0 mi North 4.6 mph - N/A   Clear
2:12 PM 62.6 °F - 14.7 °F 16% 29.99 in 10.0 mi ENE 3.5 mph - N/A   Clear
2:30 PM 63.1 °F - 14.2 °F 15% 29.98 in 10.0 mi NNW 4.6 mph - N/A   Clear
2:54 PM 64.8 °F - 14.0 °F 14% 29.98 in 10.0 mi Calm Calm - N/A   Clear
3:12 PM 65.8 °F - 15.4 °F 14% 29.97 in 10.0 mi North 5.8 mph - N/A   Clear
3:30 PM 66.4 °F - 14.9 °F 14% 29.97 in 10.0 mi Calm Calm - N/A   Clear
3:54 PM 66.6 °F - 14.7 °F 14% 29.97 in 10.0 mi North 5.8 mph - N/A   Clear
4:12 PM 66.7 °F - 13.1 °F 13% 29.97 in 10.0 mi North 5.8 mph - N/A   Clear
4:30 PM 66.2 °F - 14.4 °F 13% 29.97 in 10.0 mi North 4.6 mph - N/A   Clear
8:12 PM 42.8 °F - 27.5 °F 55% 30.01 in 10.0 mi Calm Calm - N/A   Clear
8:30 PM 43.0 °F - 27.3 °F 54% 30.01 in 10.0 mi Calm Calm - N/A   Clear
8:54 PM 41.4 °F - 27.1 °F 57% 30.01 in 10.0 mi Calm Calm - N/A   Clear
9:12 PM 38.5 °F - 27.9 °F 66% 30.01 in 10.0 mi Calm Calm - N/A   Clear
9:36 PM 37.9 °F - 27.5 °F 66% 30.02 in 10.0 mi Calm Calm - N/A   Clear
9:54 PM 36.3 °F - 27.9 °F 71% 30.02 in 10.0 mi Calm Calm - N/A   Clear
10:12 PM 35.8 °F - 27.7 °F 72% 30.02 in 10.0 mi Calm Calm - N/A   Clear
10:36 PM 34.2 °F 31.2 °F 27.1 °F 75% 30.02 in 10.0 mi South 3.5 mph - N/A   Clear
10:54 PM 36.9 °F - 26.2 °F 65% 30.02 in 10.0 mi Calm Calm - N/A   Clear
11:12 PM 33.1 °F - 27.3 °F 79% 30.02 in 10.0 mi Calm Calm - N/A   Clear
11:36 PM 32.4 °F - 26.6 °F 79% 30.02 in 10.0 mi Calm Calm - N/A   Clear
11:54 PM 32.5 °F - 27.1 °F 80% 30.02 in 10.0 mi Calm Calm - N/A   Clear